User: anonymous   Login
Location: Vancouver
(49.2500°N, 123.1330°W)
Time: 04:53:14
(UTC-07:00)
Language:

Oscar 11 - Orbit

View from above orbital plane
View from above orbital plane
View from above satellite
View from above satellite

Ground track
Ground track

The orbit data is extracted from the following two-line orbital elements,

1 14781U 84021B   15142.72144584  .00000650  00000-0  87560-4 0  9995
2 14781 097.8038 200.4280 0009446 146.5365 213.6447 14.82380720678257
Epoch (UTC): 22 May 2015 17:18:52
Eccentricity: 0.0009446
inclination: 97.8038°
perigee height: 615 km
apogee height: 628 km
right ascension of ascending node: 200.4280°
argument of perigee: 146.5365°
revolutions per day: 14.82380720
mean anomaly at epoch: 213.6447°
orbit number at epoch: 67825

The dashed part of the orbit path shows where the satellite is in the earth's shadow,  

DLR